Flag for Belgium Weather past 2 weeks in Mechelen, Belgium

Now
66 °F

Passing clouds.


Feels Like: 66 °F
Forecast: 47 / 67 °F
Wind: 14 mph from Southeast

Location: Brussels National Airport


UV Index: 0 (Low)

Visibility: N/A


Pressure: 29.65 "Hg

Humidity: 43%

Dew point: 43 °F

Location of MechelenLocation

Historic Weather in Mechelen

°F

Mechelen temperature yesterday

Maximum temperature yesterday: 61 °F (at 5:20 PM)
Minimum temperature yesterday: 37 °F (at 5:50 AM)
Average temperature yesterday: 50 °F

Past Weeks' High & Low Weather Summary

 TemperatureHumidityPressure
High70 °F (Apr 7, 2:20 PM)100% (Apr 12, 7:20 AM)30.42 "Hg (Apr 12, 7:20 AM)
Low34 °F (Apr 16, 5:50 AM)3% (Apr 15, 8:20 AM)29.62 "Hg (Apr 20, 5:20 PM)
Average51 °F68%30.10 "Hg
* Reported Apr 5 5:20 PM — Apr 20 5:50 PM, Mechelen, Weather by CustomWeather, © 2014

Note: Actual official high and low records may vary slightly from our data, if they occured in-between our weather recording intervals... More about our weather records

Advertising

Historic Weather Conditions — Data for Previous 24 hours

 ConditionsComfort  
Time TempWeatherWind HumidityBarometerVisibility
5:50 PM
Apr 20
68 °FPassing clouds.12 mph46%29.62 "HgN/A
5:20 PM66 °FPassing clouds.10 mph49%29.62 "HgN/A
4:50 PM68 °FSunny.13 mph43%29.65 "Hg10 mi
4:20 PM66 °FSunny.10 mph46%29.65 "Hg10 mi
3:50 PM66 °FPassing clouds.14 mph46%29.65 "HgN/A
3:20 PM66 °FPassing clouds.16 mph46%29.65 "HgN/A
2:50 PM68 °FPassing clouds.16 mph43%29.65 "HgN/A
2:20 PM66 °FPassing clouds.14 mph46%29.65 "HgN/A
1:50 PM66 °FScattered clouds.15 mph52%29.65 "HgN/A
1:20 PM66 °FScattered clouds.15 mph49%29.65 "HgN/A
12:50 PM64 °FScattered clouds.14 mph56%29.68 "HgN/A
12:20 PM64 °FPassing clouds.9 mph60%29.68 "HgN/A
11:50 AM63 °FPassing clouds.10 mph64%29.68 "HgN/A
11:20 AM61 °FPassing clouds.12 mph68%29.71 "HgN/A
10:50 AM59 °FPassing clouds.10 mph72%29.71 "HgN/A
10:20 AM57 °FSunny.8 mph77%29.71 "Hg10 mi
9:50 AM55 °FClear.5 mph82%29.71 "Hg5 mi
9:20 AM54 °FClear.5 mph82%29.74 "Hg4 mi
8:50 AM52 °FClear.3 mph82%29.74 "Hg4 mi
8:20 AM50 °FClear.5 mph88%29.74 "Hg4 mi
7:50 AM48 °FClear.3 mph87%29.74 "Hg4 mi
7:20 AM48 °FClear.3 mph87%29.74 "Hg4 mi
6:50 AM46 °FClear.3 mph93%29.74 "Hg5 mi
6:20 AM46 °FClear.3 mph87%29.77 "Hg5 mi
5:50 AM46 °FClear.5 mph87%29.77 "Hg10 mi
5:20 AM46 °FClear.7 mph87%29.77 "Hg10 mi
4:50 AM46 °FClear.5 mph87%29.77 "Hg10 mi
4:20 AM48 °FClear.3 mph82%29.80 "Hg10 mi
3:50 AM48 °FClear.6 mph87%29.80 "Hg10 mi
3:20 AM50 °FClear.6 mph82%29.80 "Hg10 mi
2:50 AM50 °FClear.7 mph82%29.80 "Hg10 mi
2:20 AM50 °FClear.7 mph82%29.83 "Hg10 mi
1:50 AM52 °FClear.7 mph77%29.83 "Hg10 mi
1:20 AM54 °FClear.8 mph72%29.86 "Hg10 mi
12:50 AM54 °FClear.7 mph72%29.86 "Hg10 mi
12:20 AM54 °FClear.8 mph72%29.86 "Hg10 mi
11:50 PM
Apr 19
55 °FClear.8 mph67%29.86 "Hg10 mi
11:20 PM55 °FClear.9 mph63%29.89 "Hg10 mi
10:50 PM55 °FClear.9 mph63%29.89 "Hg10 mi
10:20 PM54 °FClear.7 mph67%29.89 "Hg10 mi
9:50 PM52 °FClear.6 mph67%29.89 "Hg10 mi
9:20 PM52 °FSunny.7 mph67%29.89 "Hg10 mi
8:50 PM55 °FSunny.8 mph59%29.89 "Hg10 mi
8:20 PM55 °FSunny.7 mph59%29.89 "Hg10 mi
7:50 PM57 °FSunny.8 mph51%29.89 "Hg10 mi
7:20 PM59 °FPassing clouds.13 mph48%29.89 "HgN/A
Weather by CustomWeather, © 2014

See weather overview